Preview of NWS' New Version of Forecast
This preview is not operational and should not be used for support decisions.

Regional Weather Roundup (RWR)

Issued by National Weather Service (NWS)

                            
000
ASUS43 KBIS 182010
RWRND 

NORTH DAKOTA REGIONAL WEATHER ROUNDUP
NATIONAL WEATHER SERVICE BISMARCK ND
300 PM CDT THU APR 18 2019

NOTE: "FAIR" INDICATES FEW OR NO CLOUDS BELOW 12,000 FEET WITH NO
SIGNIFICANT WEATHER AND/OR OBSTRUCTIONS TO VISIBILITY.


NDZ001>003-009>011-017-182100-
NORTHWEST NORTH DAKOTA
  
CITY           SKY/WX    TMP DP  RH WIND       PRES   REMARKS
WILLISTON      MOSUNNY   59  24  26 NW14G23   30.08S                  
MINOT          CLOUDY    54  38  54 NW13      30.06R                  
MINOT AFB      PTSUNNY   52  39  60 NW14G21   30.04S                  
$$
 
NDZ018>021-031>035-040>046-182100-
SOUTHWEST NORTH DAKOTA
  
CITY           SKY/WX    TMP DP  RH WIND       PRES   REMARKS
BISMARCK       PTSUNNY   51  38  60 NW10      30.07S                  
DICKINSON      MOSUNNY   57  31  37 NW25G32   30.06R                  
GARRISON         N/A     52  38  58 N9        30.06S                  
HETTINGER ARPT LGT RAIN  56  32  40 NW22G37   30.08R                  
$$
 
NDZ004>008-012>016-024-026-027-054-182100-
NORTHEAST NORTH DAKOTA
  
CITY           SKY/WX    TMP DP  RH WIND       PRES   REMARKS
GRAND FORKS    MOSUNNY   56  34  43 N15G21    29.99S                  
GRND FRKS AFB  MOSUNNY   55  36  47 N12G17    30.01F                  
DEVILS LAKE    SUNNY     54  26  34 NW8       30.02S                  
$$
 
NDZ022-023-025-028>030-036>039-047>053-182100-
SOUTHEAST NORTH DAKOTA
  
CITY           SKY/WX    TMP DP  RH WIND       PRES   REMARKS
FARGO          MOSUNNY   54  40  59 N14       29.97R                  
JAMESTOWN      SUNNY     56  34  43 N13       30.00R                  
$$